Date,TemperatureHighF,TemperatureAvgF,TemperatureLowF,DewpointHighF,DewpointAvgF,DewpointLowF,HumidityHigh,HumidityAvg,HumidityLow,PressureMaxIn,PressureMinIn,WindSpeedMaxMPH,WindSpeedAvgMPH,GustSpeedMaxMPH,PrecipitationSumIn
2013-2-1,26.7,13.4,-4.0,20.0,6.8,-9.1,81,75,69,30.54,30.15,11,3,14,0.00
2013-2-2,37.6,29.4,23.2,32.6,24.3,19.1,89,81,73,30.26,30.09,18,2,21,0.01
2013-2-3,42.4,33.1,20.7,31.4,24.8,15.2,83,72,59,30.26,29.81,20,4,26,0.00
2013-2-4,35.9,26.9,21.9,29.6,22.7,19.1,89,84,77,30.05,29.79,19,4,27,0.00
2013-2-5,51.3,37.6,25.0,35.7,28.7,22.6,91,72,48,30.09,29.87,19,4,22,0.00
2013-2-6,54.9,41.0,31.7,40.9,32.9,26.0,83,73,56,30.10,29.84,8,2,13,0.00
2013-2-7,39.6,32.8,28.4,34.9,28.7,23.0,95,85,80,30.28,29.89,23,8,26,0.00
2013-2-8,31.5,27.6,24.3,26.6,24.0,21.5,91,86,80,30.38,30.18,11,4,14,0.00
2013-2-9,48.2,36.8,27.5,38.8,31.8,25.0,92,82,68,30.20,29.69,18,7,20,0.00
2013-2-10,44.3,36.2,29.4,41.5,32.3,22.9,96,86,76,29.83,29.27,27,8,29,0.03
2013-2-11,37.3,29.7,23.1,26.7,22.9,19.8,88,76,64,30.20,29.83,24,6,34,0.00
2013-2-12,48.2,32.6,19.7,29.0,23.0,17.0,91,70,42,30.19,29.93,12,2,14,0.00
2013-2-13,53.5,37.4,23.9,33.7,27.2,20.2,88,69,43,29.94,29.75,10,2,12,0.00
2013-2-14,45.2,35.6,19.9,32.7,27.2,14.0,92,72,47,30.31,29.81,23,6,26,0.00
2013-2-15,33.6,22.0,12.2,23.9,16.0,8.5,91,78,55,30.41,30.31,12,2,18,0.02
2013-2-16,32.3,22.6,9.1,25.2,18.2,6.0,90,83,73,30.40,30.06,10,2,10,0.03
2013-2-17,53.0,37.3,22.7,38.5,28.6,18.6,86,72,56,30.06,29.57,13,5,16,0.00
2013-2-18,43.2,31.4,20.5,33.7,25.0,15.2,90,77,64,30.10,29.55,31,10,36,0.02
2013-2-19,28.1,16.5,8.4,16.7,5.6,0.9,79,63,40,30.45,30.10,23,8,30,0.00
2013-2-20,23.9,14.8,4.7,9.2,4.0,-2.0,76,62,50,30.47,30.28,10,4,13,0.00
2013-2-21,23.6,21.1,20.0,19.3,14.6,8.4,91,77,57,30.33,29.89,14,6,18,0.00
2013-2-22,24.0,17.9,9.9,21.2,15.2,6.8,91,89,86,30.10,29.90,13,4,14,0.11
2013-2-23,34.2,21.0,5.9,32.9,18.3,2.6,95,89,84,30.08,29.89,7,2,9,0.01
2013-2-24,40.1,30.1,19.7,29.2,24.7,17.0,90,81,63,30.11,29.95,9,1,9,0.00
2013-2-25,34.2,28.5,25.3,29.0,24.9,22.5,92,86,76,30.12,29.95,15,5,16,0.00
2013-2-26,31.1,27.2,24.0,28.0,24.8,22.3,94,90,86,29.96,29.82,18,8,19,0.00
2013-2-27,37.2,29.6,23.3,26.9,23.7,19.2,89,79,63,30.14,29.94,26,10,32,0.00
2013-2-28,34.2,27.0,24.1,26.4,22.3,19.5,92,82,71,30.28,30.14,23,10,29,0.00